Theta_e
360 360 362 363 363 367 367 361 357 353 352 353 353 352 352 351 351 354 355 353 355 354 353 356 357 355 355 356 357 355 352 352 354 354 355 355 354 353 351 353 356 357 356 356 356 357 357 356 356 357 356 357 358 356 354 353 354 355 355 354 355 355 357
360 360 360 360 361 365 363 357 358 357 353 354 354 351 351 351 351 354 356 354 355 356 354 357 357 355 355 356 356 356 354 353 354 354 355 356 356 355 354 354 356 356 356 356 355 357 358 356 356 358 357 356 358 358 357 356 355 356 356 355 354 356 357
361 362 361 361 363 366 360 354 357 358 354 353 353 351 352 353 352 354 357 356 355 356 355 357 358 357 356 357 357 356 356 355 354 354 355 356 357 357 356 356 356 355 355 355 355 356 357 356 355 357 358 356 358 359 358 357 355 356 359 356 353 355 356
359 360 360 361 363 362 359 356 357 358 356 356 354 352 352 354 354 355 358 357 357 357 356 356 359 358 357 357 357 357 356 356 355 355 355 355 356 358 358 357 356 355 355 354 355 355 355 355 355 355 358 357 357 359 358 356 354 355 359 360 356 353 354
356 356 357 359 360 360 359 358 358 357 355 354 353 353 353 354 355 356 358 359 358 359 358 356 359 359 359 359 358 358 357 357 356 356 356 355 355 357 357 357 355 355 354 353 354 355 354 355 355 355 358 358 357 358 358 357 356 354 356 360 358 354 353
354 353 355 358 359 360 359 356 355 353 353 352 352 353 352 353 354 355 357 359 360 360 359 358 360 361 361 360 359 358 358 357 357 356 356 356 355 356 356 356 355 354 354 352 353 353 353 355 355 355 357 357 357 358 357 357 358 357 356 357 357 355 354
350 352 356 358 356 357 357 355 351 349 352 353 352 353 353 352 353 355 356 358 358 360 360 358 359 360 360 361 360 359 360 359 358 357 357 356 355 356 356 356 355 354 354 354 353 352 353 355 355 355 356 356 356 357 357 356 357 357 357 356 356 356 355
346 352 357 353 347 348 352 353 351 349 350 353 354 354 353 353 354 355 357 358 356 357 359 358 359 359 359 359 359 360 360 360 359 358 358 357 356 356 355 354 355 354 354 354 354 352 352 353 355 356 356 355 356 356 356 356 356 356 357 356 357 356 356
343 347 349 344 341 345 347 348 350 350 349 352 353 354 353 353 355 356 357 358 356 357 359 359 360 361 360 359 359 359 359 360 361 360 359 358 357 356 354 353 353 353 354 354 353 353 352 352 353 355 355 355 355 356 355 356 356 356 356 356 356 356 356
342 342 342 340 338 341 342 344 348 349 349 350 351 353 355 356 357 357 357 357 357 359 359 358 358 360 360 358 357 357 357 359 360 359 358 357 356 355 353 352 351 352 352 353 353 352 351 351 351 352 354 355 355 355 354 354 355 355 354 355 355 355 355
340 340 340 338 336 337 339 342 344 346 348 348 349 352 355 356 357 357 356 357 357 358 358 355 354 356 355 354 352 351 352 353 354 354 354 354 353 352 350 350 351 351 351 352 353 352 351 351 352 351 352 354 355 355 355 354 353 354 353 353 354 355 355
338 338 338 336 336 336 337 338 340 342 344 346 347 349 350 350 352 353 354 355 355 355 354 352 351 352 351 349 349 347 347 348 351 353 354 354 354 354 352 349 348 349 351 351 351 352 351 350 351 351 352 352 353 354 354 354 353 354 354 353 353 354 355
336 336 336 335 335 335 336 336 337 337 338 339 341 343 344 345 345 345 346 348 349 350 351 351 352 352 350 350 349 349 348 349 352 354 354 355 355 354 353 351 349 348 350 352 351 351 351 351 350 351 352 353 353 353 353 353 353 354 354 354 354 354 354
334 333 333 333 333 333 333 333 334 335 335 336 336 337 339 340 341 341 341 342 343 345 347 350 351 351 351 351 351 350 350 350 351 352 352 353 353 354 354 353 351 348 349 352 352 350 350 350 350 350 350 352 353 352 352 352 353 353 353 354 355 354 354
333 331 331 331 331 331 331 331 332 332 333 333 333 334 334 336 337 338 338 339 341 343 345 349 351 351 350 351 351 350 350 350 350 351 352 351 351 353 353 352 351 349 350 353 353 350 350 350 349 350 350 350 352 353 353 352 352 353 352 353 354 354 355
332 330 330 328 328 328 328 328 329 329 329 330 331 331 332 333 334 335 335 337 339 342 345 347 349 350 349 349 350 350 350 351 351 352 353 353 352 353 353 353 353 352 353 355 353 350 351 349 348 350 349 350 351 352 353 353 353 353 354 353 353 354 355
329 328 328 327 326 326 326 327 327 326 326 326 327 328 329 330 332 333 333 334 338 342 344 344 345 346 346 346 348 348 349 350 350 351 352 353 353 353 353 354 353 354 355 355 352 351 352 351 350 350 350 350 350 350 352 352 352 353 353 354 354 354 355
328 327 325 325 325 325 325 326 326 325 324 324 324 325 325 327 331 332 331 333 337 340 340 340 341 341 341 342 344 347 347 347 348 348 350 352 353 353 353 353 353 354 355 355 353 352 352 351 352 351 351 351 350 350 350 351 351 351 351 353 354 354 355
327 326 325 325 324 324 324 325 325 325 324 323 323 323 323 325 328 329 328 331 336 337 334 333 336 338 337 338 341 344 346 346 346 347 347 348 351 353 353 353 354 354 354 355 354 353 353 352 352 352 351 351 351 351 351 351 352 351 351 351 353 353 354
326 325 325 324 324 325 325 324 325 325 324 323 323 323 323 324 324 324 324 327 333 336 333 329 330 332 333 335 338 341 344 345 346 347 346 345 348 351 350 350 353 353 353 355 355 355 355 354 353 353 352 351 350 351 351 351 351 352 352 352 352 351 352
326 325 324 324 324 324 324 323 324 325 324 322 322 322 322 323 323 322 322 323 329 335 334 330 329 328 328 329 332 335 339 342 344 345 344 343 344 345 345 347 351 352 353 355 355 355 355 354 354 355 354 353 352 351 351 350 351 352 353 354 353 352 350
326 324 323 323 322 322 321 321 322 324 323 321 320 322 322 322 323 323 322 322 326 330 330 329 330 330 329 329 330 330 331 335 339 341 342 342 343 343 343 346 349 350 351 352 353 354 355 355 354 354 354 354 353 352 351 351 350 351 352 353 354 354 352
324 322 322 321 320 319 319 319 320 322 321 319 318 320 321 322 324 324 323 323 324 325 324 324 326 327 326 327 331 332 331 332 334 336 338 339 337 338 342 346 348 347 347 348 350 351 353 354 354 355 355 355 354 354 353 352 352 352 352 351 353 355 355
320 320 319 318 318 317 318 318 318 319 318 317 317 319 321 323 324 324 323 323 324 324 324 323 324 323 321 322 325 329 331 332 333 333 334 334 331 332 337 340 341 341 342 344 347 349 350 351 352 352 354 355 355 355 355 355 355 354 353 351 351 353 355
318 317 317 316 316 317 317 317 317 317 317 316 317 318 320 322 323 323 323 323 324 325 324 324 324 324 322 321 321 324 325 328 331 333 334 334 333 334 335 334 334 334 335 336 340 343 346 348 350 351 353 354 355 356 355 356 355 354 353 352 352 352 354
317 317 316 316 316 316 316 316 316 316 316 316 317 318 319 321 322 322 322 323 324 324 324 325 325 325 324 323 321 322 323 324 326 330 332 333 335 335 335 335 335 335 335 335 334 336 338 339 341 343 344 346 349 353 355 355 355 354 354 354 354 353 354
316 316 316 316 316 316 316 316 316 316 316 316 317 318 318 320 321 321 322 323 323 324 324 325 325 325 326 325 323 322 323 324 324 325 326 328 330 330 331 333 334 336 338 338 338 338 338 337 336 338 338 339 343 346 349 350 351 354 355 355 355 354 353
317 316 316 317 317 316 317 317 316 316 316 317 318 318 318 319 320 321 323 323 323 323 324 323 324 324 325 325 324 324 324 324 324 323 321 320 322 324 326 328 330 332 335 337 338 339 340 340 340 342 343 345 347 348 348 347 348 351 353 354 355 354 354
317 317 317 318 317 317 317 317 317 317 318 318 318 318 319 319 320 321 322 322 322 323 322 322 323 323 324 324 325 325 325 325 324 322 321 320 321 323 324 325 327 330 332 335 338 340 341 341 342 344 347 348 349 350 350 350 350 351 352 353 354 354 354
318 317 317 318 317 317 317 316 317 317 318 318 318 318 319 319 320 321 321 320 320 321 321 321 322 322 322 323 324 324 324 325 324 323 322 323 324 324 325 325 326 327 329 330 333 337 341 342 343 345 348 350 350 349 350 351 353 354 355 355 355 354 354
318 318 317 317 317 316 316 317 317 317 317 318 318 318 318 318 319 320 320 319 320 320 320 320 321 321 322 323 323 323 323 324 324 324 324 324 324 325 326 327 326 327 327 328 329 333 337 338 339 342 346 349 350 350 350 351 351 352 352 353 353 354 355
317 317 317 316 316 316 316 316 316 316 316 316 316 316 317 317 318 319 319 318 319 319 319 319 320 321 322 322 323 323 323 323 323 324 324 324 324 325 325 325 326 327 328 329 330 333 336 338 341 342 344 346 347 346 344 340 338 339 340 342 344 347 350
317 316 316 315 315 315 315 315 315 315 315 315 315 315 315 316 317 317 317 317 318 318 318 319 320 320 320 321 321 322 323 323 324 324 324 324 324 324 324 324 325 326 328 329 331 332 333 335 337 336 336 336 335 333 331 328 329 329 329 333 339 341 343
316 315 315 314 314 314 314 314 314 314 314 314 314 314 315 315 316 316 316 316 317 317 317 317 318 318 319 319 320 321 322 322 323 323 323 324 324 324 324 324 324 324 325 325 325 326 327 327 326 325 325 325 325 324 323 323 325 326 325 329 337 340 340
315 314 314 314 314 313 313 313 313 313 313 313 314 314 314 314 314 314 315 315 315 316 316 316 316 316 316 317 318 319 320 320 320 320 320 321 322 323 323 323 323 322 323 321 321 321 323 324 323 321 320 320 320 321 323 323 325 327 327 328 332 335 335
314 314 313 313 313 312 312 312 312 312 313 313 313 313 313 313 313 314 314 314 314 314 314 315 315 315 316 316 317 317 318 318 319 319 319 320 321 322 322 323 322 323 324 324 323 322 321 321 320 319 318 318 319 321 324 326 327 329 330 330 331 332 334
313 313 312 312 311 311 311 312 312 312 312 312 312 312 312 312 313 313 313 313 313 313 314 314 315 315 315 315 316 316 316 317 318 318 319 319 320 320 321 322 322 323 323 323 323 323 322 322 322 322 322 323 324 326 326 327 329 330 330 331 333 334 335
312 312 311 311 311 311 312 312 312 311 311 311 311 311 311 311 312 312 312 312 313 313 313 314 314 315 315 315 315 315 316 316 317 317 317 318 319 319 320 320 321 322 322 322 322 323 324 324 324 326 327 327 327 326 324 324 325 325 327 331 335 335 333
Wind_Speed
9 8 6 5 4 4 4 5 5 11 15 17 20 21 16 13 17 24 31 34 30 29 29 25 25 27 25 24 22 21 23 21 19 18 16 17 18 17 18 18 17 16 16 16 15 15 14 12 14 14 13 14 13 10 10 10 10 9 9 9 9 9 8
7 8 8 8 7 6 6 6 4 11 17 15 19 22 20 20 23 25 28 32 31 30 29 26 25 27 26 25 23 22 22 21 20 19 17 16 17 17 17 17 18 17 16 16 15 15 14 13 14 14 14 14 13 11 10 10 11 10 9 9 9 9 8
4 4 5 7 5 4 8 6 3 9 17 17 19 23 23 25 27 27 28 30 30 29 29 26 25 27 26 26 25 23 22 21 21 21 20 18 18 17 17 17 18 17 16 15 15 15 15 13 14 15 14 14 14 12 11 11 11 10 9 9 9 9 8
4 3 3 5 4 4 7 11 10 10 13 16 21 24 24 26 30 29 28 29 30 30 30 27 25 26 26 26 25 24 23 22 22 21 21 20 19 17 17 17 18 18 18 17 15 16 16 14 14 15 15 14 14 14 12 11 11 11 11 10 9 9 8
6 4 4 5 4 3 2 6 6 8 16 17 16 22 24 25 28 28 27 28 28 29 30 28 26 26 26 26 25 24 24 24 22 22 21 21 20 19 18 18 18 18 18 18 16 15 17 16 14 15 16 14 13 15 15 12 11 11 12 12 10 9 8
5 5 5 4 3 3 2 5 13 20 21 15 12 16 21 24 25 24 25 27 26 25 27 28 27 25 24 24 24 23 22 24 23 22 21 20 19 20 20 19 19 19 18 18 17 16 16 17 17 17 17 15 14 15 16 14 13 12 11 11 11 9 8
6 5 5 3 4 4 6 12 16 15 15 18 18 16 19 22 22 19 19 24 26 24 25 27 25 24 24 23 23 22 21 22 24 22 21 20 20 20 21 20 19 19 18 18 18 18 16 16 18 19 17 16 15 15 15 15 14 14 13 12 11 10 9
7 4 2 4 7 7 10 15 15 11 10 14 15 13 15 17 17 16 14 17 23 23 22 21 20 19 21 21 23 24 21 19 22 24 22 20 19 19 20 20 19 19 20 19 18 19 18 17 18 19 18 17 17 16 16 16 15 15 14 14 13 12 11
7 6 6 7 9 9 12 15 13 11 9 9 9 9 10 11 11 13 12 12 17 19 18 17 16 17 18 18 19 23 23 19 19 23 23 22 21 19 19 20 20 19 19 19 19 19 19 19 19 18 18 18 18 17 17 18 18 16 15 16 15 13 12
5 8 9 10 10 10 13 15 12 9 7 6 8 8 8 9 8 10 11 12 13 14 14 14 16 20 20 16 12 15 18 19 19 20 20 18 13 10 11 15 19 21 20 19 20 20 20 20 21 20 18 19 19 18 17 18 18 18 17 16 16 16 14
6 7 9 10 10 10 10 11 11 9 8 8 8 7 9 11 10 9 8 9 9 8 9 9 10 13 15 12 10 9 7 7 7 8 8 5 5 10 9 9 11 16 21 21 20 20 21 21 21 22 21 20 20 19 18 18 18 19 19 17 16 16 15
6 7 8 10 9 8 8 9 11 11 9 9 10 11 13 15 15 13 10 6 4 2 1 2 3 5 6 7 10 9 7 6 1 1 6 8 7 10 12 11 11 13 16 23 23 20 21 23 23 22 23 23 22 21 20 18 17 17 18 19 17 16 16
7 6 7 8 8 7 8 8 11 13 13 13 14 13 14 16 18 18 16 14 12 10 9 6 2 2 2 2 3 4 6 8 5 3 7 11 13 14 15 17 15 11 13 17 25 24 22 24 26 25 24 23 24 24 23 21 20 19 18 19 18 17 17
9 9 8 8 8 8 8 8 9 12 14 15 17 17 15 15 17 19 18 18 16 15 15 13 8 7 9 10 8 6 4 6 6 5 6 9 14 16 15 16 18 15 12 14 20 28 26 23 26 28 27 25 24 24 24 23 24 23 22 20 19 19 19
11 11 10 10 9 7 7 7 8 12 13 12 14 16 17 16 16 17 18 18 17 15 16 16 14 13 14 16 14 11 7 5 3 2 3 5 9 13 15 13 13 16 14 13 13 22 25 23 24 26 29 28 25 25 25 25 25 25 25 25 24 23 22
12 11 11 10 9 7 7 7 8 12 14 12 11 13 14 16 17 18 17 16 16 16 16 17 16 16 19 19 18 15 12 10 7 5 3 1 3 6 9 10 10 14 15 12 10 13 17 19 19 21 27 30 28 26 26 26 25 25 26 27 27 26 26
11 11 12 11 10 8 7 7 8 11 12 11 12 14 15 16 17 19 18 16 16 18 18 18 17 18 19 19 18 16 14 11 9 7 6 4 2 3 6 7 9 13 14 13 11 11 11 14 14 13 18 26 30 30 28 28 27 26 26 27 28 28 28
9 10 11 11 10 9 8 8 9 10 11 12 12 14 16 16 16 17 18 17 18 19 17 18 19 18 18 17 17 16 15 11 10 9 8 6 4 0 4 7 10 12 13 12 12 11 10 11 11 10 10 14 21 25 27 28 28 27 27 26 27 29 29
10 10 11 10 9 8 8 8 10 11 13 14 14 13 13 14 16 18 17 16 18 20 20 19 18 18 18 17 16 15 15 12 11 12 11 8 5 3 3 5 7 8 8 8 8 10 11 11 12 13 12 11 12 14 17 20 22 24 26 26 27 28 30
10 10 11 10 8 7 8 8 10 12 15 15 14 14 13 13 17 18 16 14 15 18 22 21 19 17 17 16 15 15 14 13 11 13 14 11 7 4 5 7 5 5 5 5 7 8 10 12 14 15 15 15 14 14 14 14 14 16 19 24 28 30 31
9 9 9 8 7 7 8 8 8 11 16 15 13 14 15 14 14 17 17 16 16 18 20 20 19 17 16 15 15 14 14 12 11 12 13 12 9 6 5 6 4 3 3 5 6 7 9 12 14 15 15 16 17 18 19 19 17 15 14 16 20 25 31
7 8 9 9 9 9 9 8 8 11 16 15 13 12 13 13 13 14 14 15 16 18 18 17 16 15 14 14 14 13 13 12 10 10 10 10 9 7 7 6 5 4 4 5 6 7 9 11 12 13 15 15 16 18 20 22 22 21 19 17 17 18 22
7 10 13 15 14 12 9 8 9 13 17 15 13 10 10 11 12 12 12 12 13 15 15 15 15 13 12 11 10 10 10 9 8 8 6 5 5 6 6 6 6 6 5 6 6 7 8 10 12 12 13 14 15 16 18 20 20 21 22 21 20 18 18
12 15 16 16 15 12 9 9 12 16 17 14 13 12 12 12 12 12 12 13 13 14 15 15 13 11 11 11 9 9 8 8 8 6 5 5 6 7 6 6 6 5 5 6 6 6 7 9 11 12 12 12 13 13 14 15 15 17 20 22 23 23 22
14 18 17 14 12 11 11 12 15 18 17 14 14 15 14 13 13 13 11 11 12 14 15 14 11 9 9 9 8 8 7 7 8 8 8 9 10 9 9 9 8 8 7 8 8 7 7 8 10 11 11 11 11 11 11 12 14 18 22 23 24 26 29
14 17 15 12 11 13 15 15 15 16 16 15 15 15 14 13 12 12 10 9 11 12 12 11 9 7 7 7 7 7 7 7 8 9 10 12 13 13 12 11 10 10 10 10 10 9 9 8 9 10 11 10 10 10 12 16 19 22 22 21 22 24 25
16 16 15 14 15 16 16 15 15 15 15 15 15 15 14 13 11 10 9 9 10 11 10 8 7 6 5 6 7 8 7 7 8 9 11 12 13 15 15 14 13 13 12 11 11 11 11 11 11 12 13 13 11 11 16 20 21 21 20 19 19 22 22
16 15 15 17 17 15 15 15 14 13 14 14 14 14 13 12 10 9 10 11 11 11 10 8 7 8 7 7 8 8 7 8 8 10 12 12 13 15 17 16 16 15 15 14 14 14 14 14 14 14 15 15 13 13 16 19 20 19 19 18 20 22 23
14 13 14 17 16 14 13 14 12 11 13 14 13 12 11 11 12 11 12 13 12 10 10 9 9 10 9 9 9 9 9 10 11 13 14 13 13 14 16 16 16 16 16 16 16 16 16 17 17 16 16 16 15 14 15 17 17 17 18 19 20 21 22
14 13 13 15 15 12 11 11 10 10 12 12 12 11 12 12 12 11 12 12 11 10 10 10 10 10 10 11 11 11 11 12 14 15 16 15 14 14 15 15 16 16 16 17 17 17 18 19 18 17 16 16 17 16 14 14 14 15 16 17 18 19 20
14 13 13 14 13 11 9 9 8 9 10 10 10 10 11 11 10 10 10 10 9 9 10 10 10 10 11 12 12 13 14 14 15 16 16 16 15 15 15 15 16 17 17 17 18 18 19 20 21 20 18 17 16 14 11 10 11 12 13 14 15 15 17
14 13 13 12 11 8 7 7 7 8 9 9 10 9 9 9 9 8 8 8 8 8 9 9 10 10 11 12 13 14 15 16 17 17 17 17 17 18 18 18 18 19 19 19 19 20 20 20 19 17 15 13 11 10 11 13 15 15 16 16 16 16 16
13 12 10 8 6 6 6 6 7 8 9 9 9 9 9 9 9 8 9 9 9 9 9 10 10 11 11 12 13 14 15 16 16 16 16 17 18 19 19 18 17 18 18 16 15 16 16 14 13 11 12 13 14 15 16 17 18 18 20 20 18 17 17
11 10 8 5 4 5 5 6 8 8 8 9 9 10 10 10 10 10 10 10 10 10 10 10 10 11 12 12 13 13 14 15 16 16 18 19 19 20 21 21 20 20 20 19 18 18 18 19 20 20 18 18 19 20 21 21 19 20 21 21 19 18 17
8 6 4 3 3 5 6 6 6 7 7 8 9 10 10 10 10 11 11 11 12 12 12 12 12 12 13 12 12 13 14 15 17 19 20 21 21 22 23 23 23 24 25 24 24 23 24 25 27 27 26 25 24 23 23 23 23 22 22 23 23 23 23
7 5 4 3 5 6 6 5 4 5 6 8 9 11 11 12 12 13 13 13 13 14 14 15 14 13 13 13 13 13 14 16 17 18 19 20 21 22 23 23 23 24 24 25 25 25 26 27 28 29 28 28 28 25 24 26 27 25 24 26 27 27 27
7 5 5 6 6 5 5 5 4 6 7 9 10 11 12 13 14 15 15 14 14 15 15 15 16 15 14 14 14 15 15 16 16 18 19 20 21 22 24 26 25 24 24 24 24 24 24 24 25 25 24 25 28 29 28 28 27 26 26 27 26 26 25
7 6 6 6 4 5 4 6 8 9 10 10 11 12 13 13 14 14 14 15 15 16 16 16 16 16 16 16 16 16 16 17 17 18 19 20 21 22 23 25 26 27 27 25 24 23 24 24 25 25 24 25 28 30 30 30 30 29 29 27 25 25 25
Wind_Direction
182 166 152 145 169 197 154 127 156 167 164 160 154 152 144 139 163 172 172 176 178 181 187 192 193 193 193 195 197 199 199 197 200 203 201 201 201 201 202 198 196 199 198 197 196 200 204 196 198 208 199 194 206 208 199 197 197 195 192 189 187 187 189
166 161 161 159 182 192 130 88 85 145 162 153 128 133 147 162 174 175 172 177 180 181 186 190 192 194 196 198 199 201 202 203 203 204 205 205 201 202 206 202 200 203 205 204 201 201 208 204 201 206 201 196 204 204 196 196 195 193 196 196 192 194 199
136 149 159 148 164 155 129 145 154 146 162 159 136 142 160 172 179 178 174 176 180 182 186 190 193 195 198 199 200 202 203 206 207 206 208 208 205 204 208 207 204 205 209 209 204 202 209 211 203 203 204 199 202 206 204 203 199 195 202 208 203 204 204
103 88 82 83 97 99 127 162 184 171 148 135 135 151 165 175 181 183 178 176 179 183 185 189 193 196 199 200 202 204 204 205 208 210 210 210 209 207 208 210 209 209 209 209 209 207 207 208 201 201 206 202 201 207 209 210 206 201 205 213 214 214 212
101 85 63 55 69 66 132 156 143 95 87 90 119 146 158 171 179 181 181 179 181 185 186 189 192 195 199 201 203 205 205 206 208 209 211 211 212 212 211 211 213 214 212 209 210 208 204 204 201 200 204 203 207 211 210 211 209 205 207 213 218 218 218
93 78 66 46 54 29 346 78 74 76 91 115 156 160 159 173 181 182 184 184 185 188 188 189 192 194 197 199 203 206 208 209 210 210 212 212 213 216 214 214 216 216 215 212 209 207 209 209 203 201 205 206 212 215 212 211 211 212 212 216 224 223 220
70 70 67 53 62 45 44 77 92 104 129 156 172 174 169 175 180 180 183 189 192 193 192 193 196 198 200 199 201 203 204 208 211 211 212 212 217 221 216 214 218 218 217 218 212 208 214 214 202 202 207 207 211 214 215 214 213 217 220 219 227 230 224
60 48 35 56 69 70 70 84 110 144 167 164 159 166 174 173 171 171 178 191 198 200 196 195 199 204 209 210 209 206 203 204 207 210 212 212 217 225 220 215 220 222 219 221 217 209 211 212 204 204 208 208 211 213 216 220 216 216 221 223 227 229 227
60 55 46 52 54 57 69 80 107 146 174 166 133 131 167 173 164 165 175 189 198 201 198 194 196 202 208 214 220 216 211 210 208 206 210 211 213 223 225 221 223 226 224 223 221 214 213 214 209 207 211 212 213 213 216 222 221 216 218 225 229 229 230
44 61 60 55 46 43 58 68 87 121 144 136 112 111 144 156 152 161 175 183 188 192 193 192 198 207 208 209 223 228 223 224 221 214 212 212 220 241 244 235 232 230 229 230 227 219 216 218 215 211 214 214 213 215 218 221 223 220 217 224 231 233 236
35 53 61 60 51 43 49 56 69 91 104 110 115 115 115 118 122 131 155 178 186 190 189 182 192 213 218 214 222 240 259 258 240 232 231 238 319 319 300 289 275 249 233 229 231 226 218 219 219 214 214 214 214 216 219 221 225 225 221 222 228 235 239
53 48 52 58 56 45 42 47 55 64 74 87 98 97 90 90 94 95 96 109 126 128 151 162 194 223 235 238 232 238 285 313 18 153 249 245 258 264 251 258 291 294 256 230 226 230 226 220 219 217 216 216 216 217 219 221 224 226 225 223 225 231 238
84 74 58 57 58 47 42 48 53 51 45 49 63 76 84 86 84 82 80 78 76 71 70 77 120 177 100 98 203 212 245 255 230 217 252 244 236 239 233 228 239 279 290 248 224 223 230 225 218 218 219 219 219 219 220 221 223 225 226 223 222 226 234
93 86 75 67 62 51 46 48 57 61 52 42 44 52 65 80 83 79 75 71 68 65 64 72 90 101 90 84 81 97 162 213 224 238 251 240 237 238 232 229 232 237 271 280 237 219 224 229 221 217 218 220 222 221 220 221 222 224 226 226 225 225 230
101 91 86 81 75 67 60 53 59 73 72 58 51 51 53 61 72 75 73 69 66 61 59 66 79 87 82 74 69 74 98 121 137 189 213 224 239 237 229 237 241 225 240 284 256 219 219 227 226 220 217 218 221 221 220 221 222 225 226 227 228 228 228
110 108 102 94 90 88 82 74 72 81 86 83 76 72 64 57 61 68 68 66 66 65 67 70 71 74 75 74 72 77 87 95 99 101 107 160 235 235 228 236 233 221 238 269 254 219 219 225 227 225 220 219 219 219 219 220 223 227 229 229 230 230 229
107 110 109 104 97 91 88 89 83 81 85 83 79 82 79 66 61 64 63 65 70 70 72 75 72 68 70 72 76 79 82 84 82 73 69 86 121 208 221 228 228 230 246 257 242 225 222 224 230 235 225 220 219 219 219 220 223 227 231 234 234 232 232
95 96 97 95 91 85 80 78 78 78 76 70 66 75 82 81 79 75 68 68 76 79 77 76 73 68 66 68 71 73 73 73 69 57 55 72 83 170 238 236 238 244 255 258 245 235 231 229 235 242 237 224 220 219 221 222 225 227 229 234 238 237 236
103 99 91 83 78 75 68 58 58 69 70 61 54 54 65 82 90 85 76 73 81 84 81 78 77 72 67 65 66 66 64 63 62 50 40 44 58 39 327 285 256 251 266 272 258 251 250 248 248 250 254 249 237 231 228 226 228 231 231 233 236 238 237
107 108 102 97 91 83 79 63 54 66 70 60 50 43 43 63 82 81 71 70 87 91 82 76 76 75 71 67 65 65 63 64 62 49 37 34 43 31 338 319 287 248 257 269 265 263 261 258 259 261 262 262 263 264 260 252 247 245 243 241 240 240 239
103 108 105 105 102 93 89 75 63 81 83 70 56 49 42 46 67 76 68 65 84 95 86 76 74 72 68 65 62 60 59 60 59 46 34 30 26 7 328 317 312 287 277 278 279 282 278 272 270 270 270 270 269 271 273 272 271 272 270 263 257 252 246
102 109 108 105 93 81 76 60 58 91 94 78 62 61 56 47 53 67 66 66 82 93 87 79 76 70 63 60 58 55 52 55 58 46 28 17 7 349 330 336 358 2 337 319 312 305 299 298 293 285 280 276 273 274 274 272 272 279 286 288 288 283 267
100 104 111 111 98 84 75 57 60 85 90 71 50 55 69 65 60 62 55 52 72 90 86 76 72 64 52 47 44 39 36 40 49 52 38 356 329 323 330 351 9 9 357 347 336 324 317 313 307 301 294 287 282 282 280 278 279 284 287 285 281 286 288
105 95 94 96 93 87 74 59 63 76 78 61 42 47 65 69 68 67 51 34 48 75 80 71 68 62 49 38 31 22 13 7 9 14 5 328 309 306 318 333 338 339 348 349 335 325 324 319 314 310 305 299 297 296 293 292 292 286 278 272 266 264 267
101 93 85 80 83 83 73 63 64 69 67 52 44 51 61 65 67 67 54 32 35 54 61 56 54 55 45 31 22 15 5 352 344 341 340 334 327 324 328 332 332 332 338 340 333 331 337 335 328 322 315 310 309 307 296 283 273 266 261 258 256 253 254
90 91 87 77 73 73 70 63 57 56 52 46 47 52 54 60 66 61 48 38 38 41 43 42 37 35 30 15 5 360 352 345 341 337 333 329 326 327 328 329 330 332 334 331 325 323 326 328 326 320 313 308 304 296 279 264 256 256 259 262 262 260 261
83 84 85 79 71 67 66 60 51 47 43 42 46 47 45 51 59 53 41 43 44 36 32 30 22 11 2 349 345 342 336 336 338 334 329 325 321 319 320 322 323 323 321 319 316 314 315 315 312 306 301 299 293 278 269 267 265 265 270 274 273 270 269
80 78 78 77 72 65 62 57 48 40 39 41 43 40 37 41 44 41 41 45 41 28 18 14 5 354 343 333 331 329 326 326 326 323 320 317 315 313 313 316 318 316 312 309 309 309 308 308 305 299 294 294 291 278 270 272 277 281 282 282 279 274 271
84 77 73 74 71 64 60 56 46 39 40 42 41 36 33 36 38 38 40 38 29 14 5 0 354 346 340 336 331 325 321 317 313 313 314 314 316 315 312 312 312 312 310 306 304 302 299 298 297 292 287 287 287 285 283 286 290 291 290 290 287 282 277
88 81 77 75 71 63 57 52 45 44 45 42 39 36 34 33 33 33 32 24 9 359 358 355 350 344 339 336 330 325 321 315 313 315 316 315 315 314 312 312 310 306 303 301 298 294 290 289 290 286 282 281 284 288 294 297 297 295 293 295 296 292 284
91 86 82 78 73 64 55 51 46 45 46 42 37 34 32 30 27 25 23 11 354 350 352 348 345 342 338 334 331 327 322 317 316 319 320 319 316 311 308 308 307 304 302 298 294 288 282 281 282 281 277 275 278 289 307 319 318 312 310 311 314 311 299
91 88 80 72 68 64 55 50 45 42 40 37 33 27 23 21 18 13 7 357 346 346 349 348 346 345 342 338 333 329 324 319 316 318 320 320 316 310 305 303 300 299 299 296 292 286 280 278 277 278 280 284 294 312 329 332 327 321 317 315 315 316 311
96 92 84 74 68 66 57 48 43 38 31 24 20 16 11 8 6 1 355 350 350 352 352 351 351 349 345 341 334 329 328 326 323 321 321 319 317 315 313 308 304 304 306 308 311 309 305 306 309 310 313 315 318 320 319 318 315 312 309 307 306 308 310
100 96 89 85 80 71 61 53 45 32 17 7 5 5 4 3 2 358 353 353 356 355 352 352 353 350 346 342 337 334 333 333 333 331 330 329 326 323 322 319 319 318 315 314 317 320 319 319 317 316 315 313 310 309 308 306 303 301 301 301 298 298 299
111 110 104 105 96 78 61 44 28 12 360 1 5 2 359 359 357 355 353 354 355 353 351 350 349 346 342 339 336 334 333 333 332 330 329 328 325 321 317 315 315 316 313 309 307 308 309 310 308 307 307 306 303 301 299 298 299 301 301 298 293 290 291
133 127 112 89 74 62 42 8 351 357 6 12 11 3 357 355 353 352 351 349 348 347 346 344 341 339 339 338 335 332 331 330 328 325 323 321 320 318 315 310 308 308 308 307 305 302 301 301 302 302 303 302 299 296 294 294 295 296 295 293 291 290 290
152 141 103 72 44 18 357 351 12 32 29 21 13 4 358 353 347 346 346 343 341 340 338 337 338 338 336 335 332 329 327 325 324 324 322 318 316 315 314 311 308 304 302 301 303 302 300 298 298 298 298 296 295 296 295 292 289 287 288 289 289 288 287
138 117 89 63 21 355 9 37 45 38 26 16 6 357 351 344 338 337 337 335 336 337 337 337 338 337 333 330 326 321 319 316 315 315 315 314 312 311 309 308 307 305 303 302 302 301 300 298 295 294 293 292 293 295 294 290 287 286 287 286 285 284 286